Location: Quedlinburg
(51.7921°N, 11.1414°E)
Time: 01:19:46
(UTC+02:00)

BEESAT - Pass Details

Date: 22 March 2026
Orbit: 683 x 693 km, 98.4° (Epoch: 13 April)

Event Time Altitude Azimuth Distance (km) Brightness Sun altitude
Rises 23:37:30 0° 18° (NNE) 3,063 ? -36.4°
Reaches altitude 10° 23:39:48 10° 22° (NNE) 2,142 ? -36.5°
Enters shadow 23:40:43 16° 26° (NNE) 1,785 ? -36.6°
